STARLINK-4311, 53062

Orbit data source: Space-Track

STARLINK-4311, 53062 is a payload satellite owned by SpaceX/Seattle (US) in SSO that was launched on Mon, 11 Jul 2022 UTC via an FALCON 9 launch vehicle from the Air Force Western Test Range (AFWTR). Payload-class satellites include a variety of spacecraft equipped with specific instruments for various scientific and technological missions. These include communications satellites like Starlink; space stations such as the ISS; scientific satellites like the Hubble; Earth observation satellites from companies like Planet Labs, Umbra, and HawkEye 360; GPS; miniature CubeSats for education and research; and military/defense satellites.

Loading next visibility...
Identifier
53062, 2022-077V
Orbit
SSO
Country
Flag of USUS
Related business
Manufacturer
SpaceX/Seattle
Mission
Operational Commercial Communications
Bus & Motor
STARLINK, Unknown motor
Mass
297 kg wet, ~275 kg dry
Launch date (UTC)
2022-07-11 (4 years ago)
Launch vehicle
FALCON 9
Launch site
Air Force Western Test Range (AFWTR)
Object type
Payload
Rocket body
Debris
Shape & HBR
Box + 1 Pan, 10.1 m
Radar Cross Section
13.562 m², Large (>1 m²)

Expand to show TLE details & history
Last TLE update: 2 days ago

TLE from 2 days ago
0 STARLINK-4311
1 53062U 22077V   26171.45011139  .00000631  00000-0  47672-4 0  9995
2 53062  97.3354 350.3447 0002358  73.5007 286.6479 15.05654748216371
Epoch: 2026-06-20T10:48Z
TLE epoch observation values (Epoch: 2026-06-20T10:48:09.624Z)
Latitude
-0.00005°
Longitude
-80.35996°
Altitude
552.102 km
Speed
7.586 km/s
True Right ascension
23h 21m 22s
True Declination
0° 00' 00"
Sunlit
Object was in daylight at epoch
Visualization orbit readout
Latitude
Unknown
Longitude
Unknown
Altitude
Unknown
Speed
Unknown
Apparent Right ascension
Unknown
Apparent Declination
Unknown
Sunlit
N/A
Visualization observer readout
Local Sidereal Time
23:21:03
Azimuth
Unknown
Elevation
Unknown
Doppler factor
Unknown
Orbital elements
Apogee altitude
548.111 km
Perigee altitude
544.846 km
Semi-major axis
6,924.616 km
Eccentricity
0.00024
Inclination
97.3354°
RAAN
350.3447°
Arg. of periapsis
73.5007°
True anomaly
286.62201°
Mean anomaly
286.6479°
Eccentric anomaly
286.63496°
Mean motion
3.7666 °/min
Orbital period
95.58 mins
BSTAR
0.000047672
Loading maneuver chart data...
Computing Atmospheric mass density...
Loading historical data...
Loading historical data...
Loading historical data...
Loading historical data...
Loading historical data...
Loading historical data...
Loading historical data...

Documentation

Showing up to 5 results
|